Regional Weather Roundup
Issued by NWS

Home | Current Version | Previous Version | Graphics & Text | Print | Product List | Glossary On
Versions: 1 2 3 4 5 6 7 8 9 10 11 12 13 14 15 16 17 18 19 20 21 22 23 24 25 26 27
000
ASUS45 KBOU 191007
RWRCO

WEATHER ROUNDUP FOR COLORADO
NATIONAL WEATHER SERVICE DENVER/BOULDER CO
400 AM MDT SAT AUG 19 2017

NOTE: "FAIR" INDICATES FEW OR NO CLOUDS BELOW 12000 FEET WITH NO
SIGNIFICANT WEATHER AND/OR OBSTRUCTIONS TO VISIBILITY.

COZ001>005-013-030-031-191100-
...NORTHWEST COLORADO...

CITY           SKY/WX    TMP DP  RH WIND       PRES   REMARKS
CRAIG          FAIR      46  37  71 CALM      30.22S
HAYDEN         FAIR      54  36  50 E10       30.25S
MEEKER         FAIR      53  37  54 SE7       30.23F
RABBIT EARS PA FAIR      52  30  43 W7        30.51S
STEAMBOAT SPGS FAIR      46  38  72 CALM      30.26F
WALDEN         FAIR      37  30  75 SE7       30.36S
$$

COZ006>008-011-191100-
...WEST CENTRAL VALLEYS...

CITY           SKY/WX    TMP DP  RH WIND       PRES   REMARKS
GRAND JUNCTION FAIR      65  35  33 E13       30.09F
MONTROSE       FAIR      57  39  51 SE7       30.20R
EAGLE          FAIR      50  31  48 CALM      30.29S
RIFLE          FAIR      55  33  43 E6        30.18S
DELTA          FAIR      63  36  36 NE9       30.16S
NUCLA          FAIR      57  32  38 SE3       30.23S
$$

COZ017>023-064>068-191100-
...SOUTHWEST COLORADO...

CITY           SKY/WX    TMP DP  RH WIND       PRES   REMARKS
DURANGO        FAIR      50  35  56 E3        30.25S
CORTEZ         FAIR      50  37  61 E5        30.20S
PAGOSA SPRINGS MOCLDY    50  34  53 CALM      30.35R
TELLURIDE      NOT AVBL
WOLF CREEK PAS FAIR      50  25  37 CALM      30.69F
$$

COZ009-010-012-014-032>034-037-058>063-191100-
...CENTRAL COLORADO...

CITY           SKY/WX    TMP DP  RH WIND       PRES   REMARKS
ASPEN          FAIR      52  34  50 SW9       30.33F
BUENA VISTA    FAIR      51  36  57 NW5       30.37S
COPPER MTN     FAIR      54  25  32 W13       30.64S
BERTHOUD PASS  FAIR      43  37  81 NW24      30.65F
COTTONWOOD PAS FAIR      59  25  27 SW6       30.49S
GUNNISON       FAIR      43  36  76 CALM      30.39S
KREMMLING      FAIR      45  37  76 CALM      30.34S
LEADVILLE      FAIR      42  31  64 CALM      30.49S
MONARCH PASS   FAIR      46  30  53 W16       30.74S
SALIDA         MOCLDY    58  37  47 NW5       30.42R
SUNLIGHT       FAIR      50  25  37 SW5       30.57S
WILKERSON PASS FAIR      50  32  50 SW6       30.62S
$$

COZ069>075-191100-
...SAN LUIS VALLEY/SANGRE DE CRISTO MOUNTAINS...

CITY           SKY/WX    TMP DP  RH WIND       PRES   REMARKS
ALAMOSA        FAIR      46  38  73 E5        30.33S
DEL NORTE      FAIR      54  36  49 W10       30.36F
LA VETA PASS   NOT AVBL
SAGUACHE       FAIR      54  36  50 E5        30.37R
$$

COZ035-036-038>040-191100-
...NORTHERN COLORADO FRONT RANGE...

CITY           SKY/WX    TMP DP  RH WIND       PRES   REMARKS
DENVER INTL AP FAIR      67  47  48 SW6       30.10F
DMNS CITY PARK   N/A     65  44  47 S7        30.11S
AURORA         CLEAR     67  47  48 S14       30.12F
FRONT RANGE AP FAIR      66  52  59 S16G23    30.12S
ERIE MUNI ARPT FAIR      53  47  81 CALM      30.15S
BOULDER MUN AP FAIR      63  45  51 CALM      30.10S
CENTENNIAL     FAIR      64  45  49 S7        30.15S
BROOMFIELD     NOT AVBL
FORT COLLINS   FAIR      59  49  69 NE3       30.09F
LONGMONT       FAIR      58  47  66 CALM      30.11S
$$

COZ041-046-047-076>085-087-088-191100-
...PIKES PEAK/PALMER DIVIDE AND SOUTHERN FOOTHILLS...

CITY           SKY/WX    TMP DP  RH WIND       PRES   REMARKS
COLO. SPRINGS  FAIR      57  51  80 N8        30.21F
A. F. ACADEMY  FAIR      51  46  83 N9        30.22F
SCHRIEVER AFB  FAIR      59  51  75 N6        30.21F
CHEYENNE MTN   FAIR      64  43  46 NW8       30.19F
ELLICOTT       NOT AVBL
FALCON         FAIR      56  49  78 W12       30.26S
FORT CARSON    FAIR      56  49  78 NW10      30.17F
LIMON          FAIR      52  52 100 CALM      30.16S
MONUMENT HILL  FAIR      55  48  76 S9        30.26F
CANON CITY     CLEAR     66  46  48 W9        30.14F
WALSENBURG     FAIR      64  41  42 CALM      30.20S
TRINIDAD       FAIR      69  51  52 SW13G18   30.17F
$$

COZ042>045-048>051-090-091-191100-
...NORTHEAST COLORADO...

CITY           SKY/WX    TMP DP  RH WIND       PRES   REMARKS
GREELEY ARPT   FAIR      57  52  83 W3        30.08S
AKRON          FAIR      67  53  61 S14       30.08F
BURLINGTON     FAIR      62  56  80 S13       30.09F
WRAY           NOT AVBL
YUMA           FAIR      59  45  58 S10       30.06S
STERLING       FAIR      59  54  82 W3        30.04S
HOLYOKE        FAIR      59  54  82 S5        30.05F
FORT MORGAN    FAIR      61  51  69 CALM      30.08F
$$

COZ086-089-092>099-191100-
...SOUTHEAST COLORADO...

CITY           SKY/WX    TMP DP  RH WIND       PRES   REMARKS
PUEBLO         FAIR      61  53  75 N8        30.10S
LA JUNTA       FAIR      64  59  83 E6        30.07F
LAMAR          FAIR      62  59  90 E5        30.05S
SPRINGFIELD      N/A     60  60 100 SW7       30.10F
$$




USA.gov is the U.S. government's official web portal to all federal, state and local government web resources and services.